DKH708 ZJHK-RPLL

Flight info

Callsign DKH708
Flight time 1h 57m
Altitude 37000
Route SAMAS8ZD SAMAS DCT AVMUP W16 TADEL TADEL5R
Aircraft A320/M-SDE3FGHIRWY/LB1

Departure

Time 2026-05-08 03:03
Airport Haikou Meilan International Airport (ZJHK)

Arrival

Time 2026-05-08 05:00
Airport Ninoy Aquino International Airport (RPLL)
Time Latitude Longitude Altitude Speed Heading
2026-05-08 02:28 19.93996 110.45755 77 ft 0 kts
2026-05-08 02:49 19.93991 110.45755 76 ft 4 kts
2026-05-08 02:49 19.93963 110.45755 73 ft 4 kts 359°
2026-05-08 02:50 19.93936 110.45755 68 ft 4 kts
2026-05-08 02:50 19.93910 110.45752 68 ft 4 kts 21°
2026-05-08 02:50 19.93895 110.45741 71 ft 2 kts 89°
2026-05-08 02:50 19.93895 110.45740 71 ft 0 kts 90°
2026-05-08 02:52 19.93895 110.45746 73 ft 5 kts 90°
2026-05-08 02:52 19.93879 110.45774 71 ft 4 kts 145°
2026-05-08 02:53 19.93842 110.45780 73 ft 5 kts 180°
2026-05-08 02:53 19.93813 110.45780 70 ft 4 kts 180°
2026-05-08 02:53 19.93779 110.45779 83 ft 6 kts 180°
2026-05-08 02:53 19.93740 110.45789 81 ft 5 kts 141°
2026-05-08 02:54 19.93729 110.45820 81 ft 6 kts 94°
2026-05-08 02:54 19.93731 110.45883 79 ft 9 kts 89°
2026-05-08 02:54 19.93733 110.45951 71 ft 10 kts 88°
2026-05-08 02:54 19.93735 110.46058 75 ft 18 kts 89°
2026-05-08 02:55 19.93736 110.46198 78 ft 20 kts 90°
2026-05-08 02:55 19.93737 110.46528 75 ft 23 kts 90°
2026-05-08 02:55 19.93737 110.46678 74 ft 19 kts 89°
2026-05-08 02:56 19.93739 110.46775 76 ft 7 kts 86°
2026-05-08 02:56 19.93771 110.46795 66 ft 6 kts
2026-05-08 02:56 19.93842 110.46794 76 ft 17 kts 360°
2026-05-08 02:56 19.93971 110.46794 69 ft 20 kts
2026-05-08 02:57 19.94121 110.46794 73 ft 23 kts 359°
2026-05-08 02:57 19.94293 110.46792 65 ft 26 kts 359°
2026-05-08 02:57 19.94484 110.46792 62 ft 29 kts 360°
2026-05-08 02:57 19.94695 110.46791 57 ft 28 kts 360°
2026-05-08 02:58 19.94890 110.46790 57 ft 27 kts 360°
2026-05-08 02:58 19.95056 110.46789 54 ft 19 kts 360°
2026-05-08 02:58 19.95122 110.46813 53 ft 7 kts 66°
2026-05-08 02:58 19.95124 110.46857 58 ft 7 kts 91°
2026-05-08 02:59 19.95124 110.46950 60 ft 15 kts 90°
2026-05-08 02:59 19.95125 110.47074 61 ft 21 kts 89°
2026-05-08 02:59 19.95127 110.47260 62 ft 28 kts 90°
2026-05-08 02:59 19.95126 110.47470 62 ft 29 kts 90°
2026-05-08 03:00 19.95126 110.47687 63 ft 30 kts 90°
2026-05-08 03:00 19.95126 110.47910 64 ft 31 kts 90°
2026-05-08 03:00 19.95127 110.48104 64 ft 19 kts 90°
2026-05-08 03:00 19.95128 110.48230 64 ft 10 kts 89°
2026-05-08 03:01 19.95177 110.48262 59 ft 8 kts 360°
2026-05-08 03:01 19.95250 110.48259 61 ft 15 kts 360°
2026-05-08 03:01 19.95353 110.48251 58 ft 12 kts 337°
2026-05-08 03:01 19.95382 110.48191 62 ft 9 kts 273°
2026-05-08 03:02 19.95380 110.48109 63 ft 25 kts 269°
2026-05-08 03:02 19.95378 110.47644 64 ft 97 kts 269°
2026-05-08 03:02 19.95375 110.46712 57 ft 153 kts 270°
2026-05-08 03:02 19.95358 110.45436 254 ft 185 kts 269°
2026-05-08 03:03 19.95419 110.43975 764 ft 203 kts 276°
2026-05-08 03:03 19.95810 110.42536 1384 ft 211 kts 300°
2026-05-08 03:03 19.96799 110.41349 2063 ft 218 kts 328°
2026-05-08 03:03 19.98275 110.40921 2416 ft 236 kts
2026-05-08 03:04 19.99821 110.41608 2932 ft 244 kts 37°
2026-05-08 03:04 20.01155 110.42687 3724 ft 245 kts 38°
2026-05-08 03:04 20.02512 110.43795 4548 ft 247 kts 38°
2026-05-08 03:04 20.03882 110.44916 5370 ft 250 kts 38°
2026-05-08 03:05 20.05263 110.46048 6188 ft 252 kts 38°
2026-05-08 03:05 20.06706 110.47125 6905 ft 255 kts 31°
2026-05-08 03:05 20.08291 110.48014 7617 ft 259 kts 26°
2026-05-08 03:05 20.09962 110.48755 8340 ft 262 kts 15°
2026-05-08 03:06 20.11804 110.49031 8820 ft 277 kts
2026-05-08 03:06 20.13778 110.48990 9329 ft 288 kts 359°
2026-05-08 03:06 20.15800 110.48986 9991 ft 293 kts
2026-05-08 03:06 20.17889 110.49010 10355 ft 310 kts
2026-05-08 03:07 20.20128 110.49051 10493 ft 333 kts
2026-05-08 03:07 20.22517 110.49097 10716 ft 351 kts
2026-05-08 03:07 20.24987 110.49141 11208 ft 358 kts
2026-05-08 03:07 20.27493 110.49181 11778 ft 362 kts 360°
2026-05-08 03:08 20.30021 110.49218 12359 ft 366 kts 360°
2026-05-08 03:08 20.32573 110.49254 12926 ft 370 kts 360°
2026-05-08 03:08 20.35176 110.49287 13500 ft 374 kts 360°
2026-05-08 03:08 20.37791 110.49320 14018 ft 378 kts 360°
2026-05-08 03:09 20.40423 110.49459 14506 ft 382 kts
2026-05-08 03:09 20.42923 110.50316 15003 ft 386 kts 27°
2026-05-08 03:09 20.45104 110.51988 15494 ft 390 kts 45°
2026-05-08 03:09 20.46717 110.54321 16005 ft 393 kts 63°
2026-05-08 03:10 20.47586 110.57087 16484 ft 396 kts 81°
2026-05-08 03:10 20.47604 110.60019 16959 ft 398 kts 100°
2026-05-08 03:10 20.46914 110.62885 17425 ft 401 kts 107°
2026-05-08 03:10 20.46133 110.65748 17897 ft 403 kts 107°
2026-05-08 03:11 20.45342 110.68634 18360 ft 406 kts 107°
2026-05-08 03:11 20.44551 110.71533 18757 ft 409 kts 107°
2026-05-08 03:11 20.43758 110.74457 19146 ft 411 kts 107°
2026-05-08 03:11 20.42965 110.77394 19535 ft 414 kts 106°
2026-05-08 03:12 20.42165 110.80355 19925 ft 416 kts 106°
2026-05-08 03:12 20.41362 110.83327 20309 ft 419 kts 106°
2026-05-08 03:12 20.40551 110.86324 20691 ft 421 kts 106°
2026-05-08 03:12 20.39735 110.89334 21081 ft 424 kts 106°
2026-05-08 03:13 20.38913 110.92355 21451 ft 426 kts 107°
2026-05-08 03:13 20.38098 110.95349 21814 ft 428 kts 106°
2026-05-08 03:13 20.37264 110.98418 22184 ft 431 kts 106°
2026-05-08 03:13 20.36432 111.01484 22530 ft 433 kts 106°
2026-05-08 03:14 20.35590 111.04582 22887 ft 436 kts 107°
2026-05-08 03:14 20.34740 111.07689 23225 ft 438 kts 107°
2026-05-08 03:14 20.33885 111.10811 23566 ft 441 kts 107°
2026-05-08 03:14 20.33024 111.13952 23853 ft 443 kts 107°
2026-05-08 03:15 20.32163 111.17108 24133 ft 445 kts 106°
2026-05-08 03:15 20.31298 111.20282 24414 ft 447 kts 106°
2026-05-08 03:15 20.30714 111.22427 24614 ft 448 kts 106°
2026-05-08 03:15 20.29559 111.26657 24977 ft 450 kts 106°
2026-05-08 03:16 20.28974 111.28789 25158 ft 451 kts 106°
2026-05-08 03:16 20.28090 111.31998 25428 ft 453 kts 106°
2026-05-08 03:16 20.27202 111.35223 25693 ft 455 kts 106°
2026-05-08 03:16 20.26309 111.38469 25964 ft 456 kts 106°
2026-05-08 03:17 20.25417 111.41709 26239 ft 458 kts 106°
2026-05-08 03:17 20.24225 111.46032 26581 ft 460 kts 106°
2026-05-08 03:17 20.23617 111.48242 26758 ft 461 kts 106°
2026-05-08 03:17 20.22715 111.51527 27019 ft 463 kts 106°
2026-05-08 03:18 20.21808 111.54820 27267 ft 465 kts 106°
2026-05-08 03:18 20.20893 111.58133 27521 ft 467 kts 106°
2026-05-08 03:18 20.19975 111.61452 27759 ft 468 kts 106°
2026-05-08 03:18 20.19053 111.64778 27990 ft 470 kts 106°
2026-05-08 03:19 20.18125 111.68124 28236 ft 471 kts 106°
2026-05-08 03:19 20.17194 111.71480 28457 ft 473 kts 106°
2026-05-08 03:19 20.16265 111.74842 28687 ft 474 kts 106°
2026-05-08 03:19 20.15331 111.78217 28902 ft 476 kts 106°
2026-05-08 03:20 20.14405 111.81556 29109 ft 478 kts 106°
2026-05-08 03:20 20.13463 111.84950 29319 ft 479 kts 106°
2026-05-08 03:20 20.12516 111.88356 29524 ft 481 kts 106°
2026-05-08 03:20 20.11565 111.91774 29725 ft 483 kts 106°
2026-05-08 03:21 20.10610 111.95197 29947 ft 484 kts 106°
2026-05-08 03:21 20.09649 111.98636 30131 ft 486 kts 106°
2026-05-08 03:21 20.08685 112.02080 30291 ft 487 kts 106°
2026-05-08 03:21 20.07718 112.05542 30469 ft 488 kts 106°
2026-05-08 03:22 20.06751 112.09001 30680 ft 488 kts 106°
2026-05-08 03:22 20.05786 112.12455 30936 ft 486 kts 106°
2026-05-08 03:22 20.04825 112.15902 31177 ft 486 kts 106°
2026-05-08 03:22 20.03864 112.19346 31402 ft 486 kts 105°
2026-05-08 03:23 20.02901 112.22793 31640 ft 485 kts 105°
2026-05-08 03:23 20.01938 112.26235 31886 ft 485 kts 105°
2026-05-08 03:23 20.00972 112.29670 32135 ft 484 kts 105°
2026-05-08 03:23 20.00006 112.33096 32385 ft 484 kts 105°
2026-05-08 03:24 19.99051 112.36482 32634 ft 483 kts 105°
2026-05-08 03:24 19.98088 112.39899 32888 ft 482 kts 105°
2026-05-08 03:24 19.97127 112.43309 33164 ft 481 kts 105°
2026-05-08 03:24 19.96167 112.46718 33440 ft 480 kts 105°
2026-05-08 03:25 19.95210 112.50118 33679 ft 480 kts 105°
2026-05-08 03:25 19.94252 112.53521 33925 ft 480 kts 105°
2026-05-08 03:25 19.93289 112.56917 34161 ft 480 kts 105°
2026-05-08 03:25 19.92327 112.60309 34384 ft 479 kts 105°
2026-05-08 03:26 19.91368 112.63692 34595 ft 479 kts 105°
2026-05-08 03:26 19.90406 112.67082 34815 ft 479 kts 105°
2026-05-08 03:26 19.89443 112.70465 35023 ft 479 kts 105°
2026-05-08 03:26 19.88481 112.73853 35219 ft 479 kts 105°
2026-05-08 03:27 19.87522 112.77244 35415 ft 479 kts 105°
2026-05-08 03:27 19.86565 112.80626 35596 ft 479 kts 105°
2026-05-08 03:27 19.85605 112.84010 35771 ft 479 kts 105°
2026-05-08 03:27 19.84638 112.87404 35947 ft 479 kts 105°
2026-05-08 03:28 19.83674 112.90786 36136 ft 479 kts 105°
2026-05-08 03:28 19.82710 112.94169 36304 ft 479 kts 105°
2026-05-08 03:28 19.81743 112.97559 36509 ft 479 kts 105°
2026-05-08 03:28 19.80779 113.00933 36672 ft 479 kts 105°
2026-05-08 03:29 19.79813 113.04318 36847 ft 478 kts 105°
2026-05-08 03:29 19.78846 113.07702 36959 ft 479 kts 105°
2026-05-08 03:29 19.77893 113.11035 36981 ft 478 kts 105°
2026-05-08 03:30 19.75006 113.21115 36974 ft 479 kts 105°
2026-05-08 03:31 19.71106 113.34666 36979 ft 479 kts 105°
2026-05-08 03:32 19.68180 113.44811 36986 ft 480 kts 105°
2026-05-08 03:32 19.66221 113.51580 36984 ft 480 kts 105°
2026-05-08 03:33 19.64266 113.58347 36983 ft 480 kts 105°
2026-05-08 03:33 19.62311 113.65114 36988 ft 480 kts 105°
2026-05-08 03:34 19.60348 113.71879 36981 ft 480 kts 105°
2026-05-08 03:34 19.58381 113.78632 36976 ft 479 kts 105°
2026-05-08 03:35 19.56421 113.85383 36980 ft 479 kts 105°
2026-05-08 03:35 19.54472 113.92079 36978 ft 478 kts 105°
2026-05-08 03:36 19.52505 113.98822 36980 ft 479 kts 105°
2026-05-08 03:36 19.50535 114.05560 36989 ft 479 kts 105°
2026-05-08 03:37 19.48554 114.12307 36994 ft 479 kts 104°
2026-05-08 03:37 19.46583 114.19034 36985 ft 478 kts 104°
2026-05-08 03:38 19.44623 114.25726 36991 ft 478 kts 105°
2026-05-08 03:38 19.42645 114.32465 36990 ft 478 kts 104°
2026-05-08 03:39 19.40661 114.39193 36987 ft 478 kts 104°
2026-05-08 03:39 19.38680 114.45916 36982 ft 478 kts 104°
2026-05-08 03:40 19.36694 114.52632 36985 ft 477 kts 105°
2026-05-08 03:40 19.34711 114.59332 36995 ft 476 kts 105°
2026-05-08 03:41 19.32730 114.66025 36987 ft 476 kts 105°
2026-05-08 03:41 19.30758 114.72660 36988 ft 475 kts 105°
2026-05-08 03:42 19.28757 114.79374 36983 ft 475 kts 105°
2026-05-08 03:42 19.26776 114.86042 36974 ft 475 kts 105°
2026-05-08 03:43 19.24802 114.92701 36974 ft 474 kts 105°
2026-05-08 03:43 19.22825 114.99315 36974 ft 474 kts 105°
2026-05-08 03:44 19.20832 115.05958 36975 ft 474 kts 105°
2026-05-08 03:44 19.18844 115.12614 36970 ft 474 kts 105°
2026-05-08 03:45 19.16857 115.19262 36961 ft 474 kts 105°
2026-05-08 03:45 19.14858 115.25910 36967 ft 474 kts 105°
2026-05-08 03:46 19.12860 115.32549 36965 ft 474 kts 105°
2026-05-08 03:46 19.10858 115.39195 36967 ft 474 kts 105°
2026-05-08 03:47 19.08861 115.45840 36963 ft 474 kts 105°
2026-05-08 03:47 19.06855 115.52490 36961 ft 475 kts 105°
2026-05-08 03:48 19.04840 115.59139 36965 ft 475 kts 105°
2026-05-08 03:48 19.02823 115.65784 36969 ft 475 kts 105°
2026-05-08 03:49 19.00807 115.72432 36959 ft 475 kts 105°
2026-05-08 03:49 18.98806 115.79041 36959 ft 475 kts 105°
2026-05-08 03:50 18.96793 115.85691 36969 ft 476 kts 105°
2026-05-08 03:50 18.94761 115.92351 36967 ft 476 kts 105°
2026-05-08 03:51 18.92729 115.99015 36970 ft 477 kts 105°
2026-05-08 03:51 18.90709 116.05627 36955 ft 476 kts 105°
2026-05-08 03:52 18.88676 116.12297 36964 ft 477 kts 105°
2026-05-08 03:52 18.86636 116.18956 36959 ft 477 kts 105°
2026-05-08 03:53 18.84601 116.25581 36967 ft 477 kts 105°
2026-05-08 03:53 18.82558 116.32244 36966 ft 477 kts 105°
2026-05-08 03:54 18.80512 116.38899 36967 ft 477 kts 105°
2026-05-08 03:54 18.78463 116.45566 36959 ft 477 kts 105°
2026-05-08 03:55 18.76409 116.52220 36964 ft 477 kts 105°
2026-05-08 03:55 18.74352 116.58867 36974 ft 476 kts 105°
2026-05-08 03:56 18.72534 116.64734 36975 ft 475 kts 105°
2026-05-08 03:56 18.70492 116.71355 36966 ft 474 kts 105°
2026-05-08 03:57 18.68443 116.77966 36968 ft 474 kts 106°
2026-05-08 03:57 18.66390 116.84568 36960 ft 474 kts 106°
2026-05-08 03:58 18.64331 116.91174 36960 ft 474 kts 106°
2026-05-08 03:58 18.62278 116.97765 36970 ft 473 kts 106°
2026-05-08 03:59 18.60225 117.04366 36960 ft 473 kts 106°
2026-05-08 03:59 18.58173 117.10953 36965 ft 473 kts 106°
2026-05-08 04:00 18.56116 117.17539 36965 ft 473 kts 106°
2026-05-08 04:00 18.54055 117.24115 36961 ft 473 kts 106°
2026-05-08 04:01 18.51995 117.30690 36963 ft 472 kts 106°
2026-05-08 04:01 18.49935 117.37266 36963 ft 472 kts 106°
2026-05-08 04:02 18.47877 117.43831 36958 ft 472 kts 106°
2026-05-08 04:02 18.45806 117.50398 36968 ft 472 kts 107°
2026-05-08 04:03 18.43736 117.56957 36969 ft 472 kts 107°
2026-05-08 04:03 18.40638 117.66791 36965 ft 471 kts 107°
2026-05-08 04:04 18.38569 117.73333 36960 ft 471 kts 107°
2026-05-08 04:04 18.36508 117.79839 36960 ft 471 kts 107°
2026-05-08 04:05 18.34435 117.86380 36956 ft 471 kts 107°
2026-05-08 04:05 18.32361 117.92918 36951 ft 471 kts 107°
2026-05-08 04:06 18.30289 117.99466 36954 ft 471 kts 107°
2026-05-08 04:06 18.28205 118.05992 36949 ft 471 kts 107°
2026-05-08 04:07 18.26120 118.12520 36949 ft 471 kts 107°
2026-05-08 04:07 18.24041 118.19045 36951 ft 471 kts 107°
2026-05-08 04:08 18.21955 118.25580 36943 ft 471 kts 107°
2026-05-08 04:08 18.19869 118.32103 36937 ft 471 kts 107°
2026-05-08 04:09 18.17793 118.38589 36952 ft 471 kts 107°
2026-05-08 04:09 18.15702 118.45110 36957 ft 470 kts 107°
2026-05-08 04:10 18.13608 118.51628 36947 ft 470 kts 107°
2026-05-08 04:10 18.11542 118.58063 36946 ft 469 kts 107°
2026-05-08 04:11 18.09444 118.64578 36953 ft 470 kts 107°
2026-05-08 04:11 18.07336 118.71080 36952 ft 470 kts 107°
2026-05-08 04:12 18.05238 118.77583 36951 ft 470 kts 107°
2026-05-08 04:12 18.03142 118.84096 36942 ft 470 kts 107°
2026-05-08 04:13 18.00966 118.90517 36935 ft 471 kts 114°
2026-05-08 04:13 17.97247 118.96165 36937 ft 474 kts 134°
2026-05-08 04:14 17.94732 118.98399 36938 ft 475 kts 145°
2026-05-08 04:14 17.91897 119.00182 36934 ft 475 kts 150°
2026-05-08 04:14 17.86113 119.03535 36928 ft 475 kts 150°
2026-05-08 04:15 17.80327 119.06889 36923 ft 475 kts 150°
2026-05-08 04:15 17.74533 119.10245 36924 ft 475 kts 150°
2026-05-08 04:16 17.68751 119.13602 36599 ft 474 kts 150°
2026-05-08 04:16 17.65866 119.15270 36329 ft 473 kts 150°
2026-05-08 04:16 17.62984 119.16932 36063 ft 473 kts 150°
2026-05-08 04:17 17.60097 119.18596 35799 ft 474 kts 150°
2026-05-08 04:17 17.57215 119.20261 35511 ft 474 kts 150°
2026-05-08 04:17 17.54326 119.21931 35235 ft 474 kts 150°
2026-05-08 04:17 17.51437 119.23596 34958 ft 475 kts 150°
2026-05-08 04:18 17.48537 119.25267 34686 ft 475 kts 150°
2026-05-08 04:18 17.45644 119.26935 34413 ft 475 kts 150°
2026-05-08 04:18 17.42752 119.28604 34144 ft 475 kts 150°
2026-05-08 04:18 17.39854 119.30274 33870 ft 475 kts 150°
2026-05-08 04:19 17.36956 119.31943 33552 ft 475 kts 150°
2026-05-08 04:19 17.34064 119.33607 33251 ft 476 kts 150°
2026-05-08 04:19 17.31156 119.35279 32956 ft 477 kts 150°
2026-05-08 04:19 17.28244 119.36954 32657 ft 478 kts 150°
2026-05-08 04:20 17.25335 119.38629 32382 ft 479 kts 150°
2026-05-08 04:20 17.22415 119.40309 32114 ft 479 kts 150°
2026-05-08 04:20 17.19488 119.41991 31849 ft 480 kts 150°
2026-05-08 04:20 17.16555 119.43677 31586 ft 481 kts 150°
2026-05-08 04:21 17.13626 119.45366 31327 ft 482 kts 150°
2026-05-08 04:21 17.10682 119.47063 31068 ft 483 kts 150°
2026-05-08 04:21 17.07773 119.48738 30815 ft 484 kts 150°
2026-05-08 04:21 17.04822 119.50435 30557 ft 485 kts 150°
2026-05-08 04:22 17.01864 119.52131 30311 ft 485 kts 150°
2026-05-08 04:22 16.98898 119.53827 30062 ft 486 kts 150°
2026-05-08 04:22 16.95924 119.55525 29795 ft 487 kts 150°
2026-05-08 04:22 16.92954 119.57224 29496 ft 487 kts 150°
2026-05-08 04:23 16.89979 119.58927 29192 ft 488 kts 150°
2026-05-08 04:23 16.86996 119.60635 28913 ft 488 kts 150°
2026-05-08 04:23 16.84016 119.62342 28628 ft 488 kts 150°
2026-05-08 04:23 16.81042 119.64050 28348 ft 489 kts 150°
2026-05-08 04:24 16.78064 119.65759 28072 ft 489 kts 150°
2026-05-08 04:24 16.75085 119.67465 27793 ft 489 kts 151°
2026-05-08 04:24 16.72096 119.69171 27519 ft 489 kts 151°
2026-05-08 04:24 16.69116 119.70868 27248 ft 487 kts 151°
2026-05-08 04:25 16.66154 119.72559 26982 ft 485 kts 151°
2026-05-08 04:25 16.63202 119.74243 26711 ft 483 kts 151°
2026-05-08 04:25 16.60261 119.75919 26454 ft 480 kts 151°
2026-05-08 04:25 16.57334 119.77590 26198 ft 478 kts 151°
2026-05-08 04:26 16.54459 119.79232 25939 ft 476 kts 151°
2026-05-08 04:26 16.51556 119.80886 25684 ft 475 kts 151°
2026-05-08 04:26 16.48667 119.82535 25431 ft 473 kts 151°
2026-05-08 04:26 16.45792 119.84177 25183 ft 470 kts 151°
2026-05-08 04:27 16.42926 119.85809 24932 ft 468 kts 151°
2026-05-08 04:27 16.40071 119.87429 24683 ft 466 kts 152°
2026-05-08 04:27 16.37226 119.89042 24417 ft 464 kts 152°
2026-05-08 04:27 16.34403 119.90649 24153 ft 461 kts 152°
2026-05-08 04:28 16.31593 119.92251 23894 ft 459 kts 152°
2026-05-08 04:28 16.28801 119.93842 23635 ft 457 kts 152°
2026-05-08 04:28 16.26020 119.95424 23357 ft 454 kts 152°
2026-05-08 04:28 16.23256 119.96993 23047 ft 452 kts 152°
2026-05-08 04:29 16.20502 119.98559 22737 ft 450 kts 152°
2026-05-08 04:29 16.17754 120.00121 22429 ft 448 kts 152°
2026-05-08 04:29 16.15014 120.01677 22130 ft 447 kts 152°
2026-05-08 04:29 16.12293 120.03221 21831 ft 445 kts 152°
2026-05-08 04:30 16.09583 120.04758 21542 ft 443 kts 151°
2026-05-08 04:30 16.06881 120.06290 21251 ft 441 kts 151°
2026-05-08 04:30 16.04188 120.07817 20959 ft 439 kts 151°
2026-05-08 04:30 16.01548 120.09313 20677 ft 438 kts 151°
2026-05-08 04:31 16.00603 120.09848 20576 ft 437 kts 151°
2026-05-08 04:31 15.99462 120.10494 20455 ft 437 kts 151°
2026-05-08 04:32 15.96799 120.12004 20178 ft 435 kts 151°
2026-05-08 04:32 15.94142 120.13511 19899 ft 433 kts 151°
2026-05-08 04:32 15.91502 120.15006 19612 ft 432 kts 151°
2026-05-08 04:32 15.88880 120.16491 19287 ft 430 kts 151°
2026-05-08 04:33 15.86257 120.17974 18971 ft 428 kts 150°
2026-05-08 04:33 15.83649 120.19449 18663 ft 426 kts 151°
2026-05-08 04:33 15.81051 120.20918 18358 ft 424 kts 150°
2026-05-08 04:33 15.78465 120.22377 18031 ft 422 kts 150°
2026-05-08 04:34 15.75892 120.23831 17675 ft 420 kts 150°
2026-05-08 04:34 15.73338 120.25275 17322 ft 417 kts 150°
2026-05-08 04:34 15.70831 120.26692 16980 ft 414 kts 150°
2026-05-08 04:34 15.68310 120.28116 16648 ft 412 kts 149°
2026-05-08 04:35 15.65796 120.29535 16299 ft 409 kts 149°
2026-05-08 04:35 15.63325 120.30929 15987 ft 399 kts 149°
2026-05-08 04:35 15.60946 120.32268 15901 ft 380 kts 150°
2026-05-08 04:35 15.58678 120.33543 15916 ft 363 kts 149°
2026-05-08 04:36 15.56509 120.34765 15918 ft 347 kts 149°
2026-05-08 04:36 15.54430 120.35937 15931 ft 333 kts 149°
2026-05-08 04:36 15.52426 120.37068 15932 ft 324 kts 149°
2026-05-08 04:36 15.50454 120.38184 15932 ft 322 kts 149°
2026-05-08 04:37 15.48488 120.39295 15929 ft 322 kts 149°
2026-05-08 04:37 15.46523 120.40403 15918 ft 321 kts 149°
2026-05-08 04:37 15.44560 120.41510 15917 ft 321 kts 149°
2026-05-08 04:37 15.42595 120.42617 15920 ft 321 kts 150°
2026-05-08 04:38 15.40574 120.43541 15927 ft 322 kts 159°
2026-05-08 04:38 15.38430 120.44235 15925 ft 323 kts 161°
2026-05-08 04:38 15.36284 120.44912 15922 ft 323 kts 161°
2026-05-08 04:38 15.34139 120.45591 15927 ft 323 kts 161°
2026-05-08 04:39 15.31991 120.46273 15924 ft 323 kts 161°
2026-05-08 04:39 15.29845 120.46955 15920 ft 323 kts 161°
2026-05-08 04:39 15.27700 120.47639 15921 ft 323 kts 161°
2026-05-08 04:39 15.25551 120.48323 15919 ft 323 kts 161°
2026-05-08 04:40 15.23410 120.49003 15919 ft 323 kts 161°
2026-05-08 04:40 15.21262 120.49685 15919 ft 323 kts 161°
2026-05-08 04:40 15.19116 120.50366 15921 ft 323 kts 161°
2026-05-08 04:40 15.16968 120.51048 15921 ft 323 kts 160°
2026-05-08 04:41 15.14822 120.51731 15921 ft 323 kts 160°
2026-05-08 04:41 15.12678 120.52412 15919 ft 323 kts 160°
2026-05-08 04:41 15.10529 120.53093 15920 ft 323 kts 161°
2026-05-08 04:41 15.08379 120.53772 15921 ft 323 kts 161°
2026-05-08 04:42 15.06961 120.54220 15920 ft 322 kts 161°
2026-05-08 04:42 15.04813 120.54898 15921 ft 322 kts 161°
2026-05-08 04:42 15.01974 120.55798 15921 ft 322 kts 161°
2026-05-08 04:42 14.99833 120.56478 15920 ft 322 kts 161°
2026-05-08 04:43 14.97691 120.57158 15919 ft 322 kts 161°
2026-05-08 04:43 14.95553 120.57835 15921 ft 322 kts 161°
2026-05-08 04:43 14.93408 120.58515 15921 ft 322 kts 161°
2026-05-08 04:43 14.91264 120.59194 15918 ft 322 kts 161°
2026-05-08 04:44 14.89815 120.59652 15917 ft 322 kts 161°
2026-05-08 04:44 14.87696 120.60320 15918 ft 322 kts 161°
2026-05-08 04:44 14.85525 120.61006 15919 ft 322 kts 161°
2026-05-08 04:44 14.83408 120.61675 15922 ft 322 kts 162°
2026-05-08 04:45 14.81174 120.62119 15906 ft 325 kts 172°
2026-05-08 04:45 14.78914 120.62350 15427 ft 325 kts 173°
2026-05-08 04:45 14.76705 120.62555 14948 ft 321 kts 173°
2026-05-08 04:45 14.74466 120.62767 14453 ft 318 kts 173°
2026-05-08 04:46 14.72271 120.62976 13976 ft 316 kts 173°
2026-05-08 04:46 14.70122 120.63180 13486 ft 314 kts 173°
2026-05-08 04:46 14.67954 120.63386 12961 ft 311 kts 173°
2026-05-08 04:46 14.65806 120.63589 12434 ft 309 kts 173°
2026-05-08 04:47 14.63656 120.63792 11911 ft 311 kts 173°
2026-05-08 04:47 14.61508 120.63995 11353 ft 310 kts 173°
2026-05-08 04:47 14.59360 120.64197 10814 ft 308 kts 173°
2026-05-08 04:47 14.57246 120.64395 10282 ft 303 kts 173°
2026-05-08 04:48 14.55162 120.64588 9752 ft 298 kts 173°
2026-05-08 04:48 14.53111 120.64777 9169 ft 294 kts 173°
2026-05-08 04:48 14.51086 120.64959 8605 ft 290 kts 173°
2026-05-08 04:48 14.49086 120.65133 8048 ft 287 kts 173°
2026-05-08 04:49 14.47078 120.65303 7497 ft 290 kts 173°
2026-05-08 04:49 14.45084 120.65456 6960 ft 285 kts 173°
2026-05-08 04:49 14.43125 120.65579 6430 ft 280 kts 173°
2026-05-08 04:49 14.41202 120.65688 5870 ft 274 kts 173°
2026-05-08 04:50 14.39317 120.65788 5309 ft 269 kts 173°
2026-05-08 04:50 14.37488 120.65880 5005 ft 254 kts 173°
2026-05-08 04:50 14.35799 120.65959 4945 ft 233 kts 173°
2026-05-08 04:50 14.34198 120.66070 4952 ft 229 kts 164°
2026-05-08 04:51 14.32889 120.66857 4962 ft 214 kts 123°
2026-05-08 04:51 14.32510 120.68197 4940 ft 188 kts 81°
2026-05-08 04:51 14.32890 120.69442 4942 ft 174 kts 68°
2026-05-08 04:51 14.33405 120.70512 4965 ft 164 kts 64°
2026-05-08 04:52 14.33950 120.71542 4952 ft 163 kts 64°
2026-05-08 04:52 14.34509 120.72562 4951 ft 163 kts 63°
2026-05-08 04:52 14.35069 120.73573 4951 ft 161 kts 63°
2026-05-08 04:52 14.35628 120.74579 4950 ft 162 kts 63°
2026-05-08 04:53 14.36184 120.75578 4943 ft 164 kts 63°
2026-05-08 04:53 14.36752 120.76598 4828 ft 163 kts 63°
2026-05-08 04:53 14.37316 120.77610 4661 ft 162 kts 63°
2026-05-08 04:53 14.37874 120.78611 4466 ft 161 kts 63°
2026-05-08 04:54 14.38431 120.79610 4267 ft 160 kts 63°
2026-05-08 04:54 14.38986 120.80606 4069 ft 160 kts 63°
2026-05-08 04:54 14.39540 120.81600 3864 ft 159 kts 62°
2026-05-08 04:54 14.40090 120.82587 3664 ft 158 kts 63°
2026-05-08 04:55 14.40635 120.83566 3465 ft 158 kts 63°
2026-05-08 04:55 14.41180 120.84546 3270 ft 157 kts 62°
2026-05-08 04:55 14.41723 120.85521 3081 ft 157 kts 62°
2026-05-08 04:55 14.42268 120.86499 2865 ft 157 kts 62°
2026-05-08 04:56 14.42811 120.87474 2669 ft 156 kts 62°
2026-05-08 04:56 14.43351 120.88444 2473 ft 156 kts 62°
2026-05-08 04:56 14.43885 120.89403 2265 ft 156 kts 62°
2026-05-08 04:56 14.44428 120.90380 2063 ft 157 kts 62°
2026-05-08 04:57 14.44972 120.91356 1871 ft 154 kts 62°
2026-05-08 04:57 14.45489 120.92286 1677 ft 147 kts 62°
2026-05-08 04:57 14.45992 120.93191 1496 ft 144 kts 62°
2026-05-08 04:57 14.46486 120.94079 1303 ft 143 kts 62°
2026-05-08 04:58 14.46982 120.94971 1122 ft 144 kts 61°
2026-05-08 04:58 14.47481 120.95867 948 ft 144 kts 61°
2026-05-08 04:58 14.47977 120.96755 796 ft 142 kts 62°
2026-05-08 04:58 14.48481 120.97641 635 ft 142 kts 62°
2026-05-08 04:59 14.48983 120.98513 467 ft 143 kts 62°
2026-05-08 04:59 14.49472 120.99394 283 ft 141 kts 65°
2026-05-08 04:59 14.49949 121.00277 85 ft 141 kts 64°
2026-05-08 04:59 14.50359 121.01048 62 ft 90 kts 60°
2026-05-08 05:00 14.50550 121.01397 70 ft 43 kts 60°
2026-05-08 05:00 14.50650 121.01573 68 ft 41 kts 60°